Time,TemperatureF,DewpointF,PressureIn,WindDirection,WindDirectionDegrees,WindSpeedMPH,WindSpeedGustMPH,Humidity,HourlyPrecipIn,Conditions,Clouds,dailyrainin,SoftwareType,DateUTC
2013-05-08 00:01:00,60.3,55.4,30.14,NNE,30,0.0,0.0,84,0.00,,,0.00,meteobridge,2013-05-08 04:01:00,
2013-05-08 00:02:00,60.3,55.4,30.14,NNE,30,0.0,0.0,84,0.00,,,0.00,meteobridge,2013-05-08 04:02:00,
2013-05-08 00:04:00,60.3,55.8,30.14,NNE,30,0.0,0.0,85,0.00,,,0.00,meteobridge,2013-05-08 04:04:00,
2013-05-08 00:05:00,60.3,55.8,30.14,NNE,30,0.0,0.0,85,0.00,,,0.00,meteobridge,2013-05-08 04:05:00,
2013-05-08 00:10:00,60.3,55.4,30.14,NNE,30,0.0,0.0,84,0.00,,,0.00,meteobridge,2013-05-08 04:10:00,
2013-05-08 00:11:00,60.3,55.8,30.14,NNE,30,0.0,0.0,85,0.00,,,0.00,meteobridge,2013-05-08 04:11:00,
2013-05-08 00:16:00,60.3,55.4,30.14,NNE,30,0.0,0.0,84,0.00,,,0.00,meteobridge,2013-05-08 04:16:00,
2013-05-08 00:21:00,60.3,55.4,30.14,NNE,30,0.0,0.0,84,0.00,,,0.00,meteobridge,2013-05-08 04:21:00,
2013-05-08 00:26:00,60.3,55.4,30.13,NNE,30,0.0,0.0,84,0.00,,,0.00,meteobridge,2013-05-08 04:26:00,
2013-05-08 00:32:00,60.3,55.4,30.13,NNE,30,0.0,0.0,84,0.00,,,0.00,meteobridge,2013-05-08 04:32:00,
2013-05-08 00:37:00,60.1,55.2,30.13,NNE,30,0.0,0.0,84,0.00,,,0.00,meteobridge,2013-05-08 04:37:00,
2013-05-08 00:43:00,60.1,55.2,30.13,NNE,30,0.0,0.0,84,0.00,,,0.00,meteobridge,2013-05-08 04:43:00,
2013-05-08 00:48:00,60.1,55.2,30.13,NNE,30,0.0,0.0,84,0.00,,,0.00,meteobridge,2013-05-08 04:48:00,
2013-05-08 00:53:00,59.9,55.0,30.13,NNE,30,0.0,0.0,84,0.00,,,0.00,meteobridge,2013-05-08 04:53:00,
2013-05-08 00:58:00,59.7,54.9,30.13,NNE,30,0.0,0.0,84,0.00,,,0.00,meteobridge,2013-05-08 04:58:00,
2013-05-08 01:03:00,59.5,54.7,30.12,NNE,30,0.0,0.0,84,0.00,,,0.00,meteobridge,2013-05-08 05:03:00,
2013-05-08 01:09:00,59.5,55.0,30.12,NNE,30,0.0,0.0,85,0.00,,,0.00,meteobridge,2013-05-08 05:09:00,
2013-05-08 01:15:00,59.4,54.9,30.12,NNE,30,0.0,0.0,85,0.00,,,0.00,meteobridge,2013-05-08 05:15:00,
2013-05-08 01:20:00,59.2,54.7,30.12,NNE,30,0.0,0.0,85,0.00,,,0.00,meteobridge,2013-05-08 05:20:00,
2013-05-08 01:25:00,59.0,54.5,30.12,NNE,30,0.0,0.0,85,0.00,,,0.00,meteobridge,2013-05-08 05:25:00,
2013-05-08 01:30:00,58.8,54.3,30.12,NNE,30,0.0,0.0,85,0.00,,,0.00,meteobridge,2013-05-08 05:30:00,
2013-05-08 01:36:00,58.6,54.5,30.12,NNE,30,0.0,0.0,86,0.00,,,0.00,meteobridge,2013-05-08 05:36:00,
2013-05-08 01:41:00,58.5,54.3,30.12,NNE,30,0.0,0.0,86,0.00,,,0.00,meteobridge,2013-05-08 05:41:00,
2013-05-08 01:47:00,58.3,54.1,30.11,NNE,30,0.0,0.0,86,0.00,,,0.00,meteobridge,2013-05-08 05:47:00,
2013-05-08 01:52:00,57.9,53.8,30.12,NNE,30,0.0,0.0,86,0.00,,,0.00,meteobridge,2013-05-08 05:52:00,
2013-05-08 01:57:00,57.9,54.1,30.12,NNE,30,0.0,0.0,87,0.00,,,0.00,meteobridge,2013-05-08 05:57:00,
2013-05-08 02:02:00,57.7,54.1,30.12,NNE,30,0.0,0.0,88,0.00,,,0.00,meteobridge,2013-05-08 06:02:00,
2013-05-08 02:08:00,57.6,54.3,30.11,NNE,30,0.0,0.0,89,0.00,,,0.00,meteobridge,2013-05-08 06:08:00,
2013-05-08 02:13:00,57.6,54.3,30.11,NNE,30,0.0,0.0,89,0.00,,,0.00,meteobridge,2013-05-08 06:13:00,
2013-05-08 02:18:00,57.6,54.3,30.11,NNE,30,0.0,0.0,89,0.00,,,0.00,meteobridge,2013-05-08 06:18:00,
2013-05-08 02:24:00,57.6,54.7,30.11,NNE,30,0.0,0.0,90,0.00,,,0.00,meteobridge,2013-05-08 06:24:00,
2013-05-08 02:29:00,57.6,54.7,30.11,NNE,30,0.0,0.0,90,0.00,,,0.00,meteobridge,2013-05-08 06:29:00,
2013-05-08 02:34:00,57.6,54.3,30.11,NNE,30,0.0,0.0,89,0.00,,,0.00,meteobridge,2013-05-08 06:34:00,
2013-05-08 02:39:00,57.6,54.7,30.11,NNE,30,0.0,0.0,90,0.00,,,0.00,meteobridge,2013-05-08 06:39:00,
2013-05-08 02:44:00,57.4,54.5,30.11,NNE,30,0.0,0.0,90,0.00,,,0.00,meteobridge,2013-05-08 06:44:00,
2013-05-08 02:50:00,57.4,54.5,30.10,NNE,30,0.0,0.0,90,0.00,,,0.00,meteobridge,2013-05-08 06:50:00,
2013-05-08 02:55:00,57.4,54.5,30.10,NNE,30,0.0,0.0,90,0.00,,,0.00,meteobridge,2013-05-08 06:55:00,
2013-05-08 03:00:00,57.4,54.5,30.10,NNE,30,0.0,0.0,90,0.00,,,0.00,meteobridge,2013-05-08 07:00:00,
2013-05-08 03:06:00,57.4,54.5,30.10,NNE,30,0.0,0.0,90,0.00,,,0.00,meteobridge,2013-05-08 07:06:00,
2013-05-08 03:11:00,57.4,54.5,30.10,NNE,30,0.0,0.0,90,0.00,,,0.00,meteobridge,2013-05-08 07:11:00,
2013-05-08 03:16:00,57.4,54.5,30.10,NNE,30,0.0,0.0,90,0.00,,,0.00,meteobridge,2013-05-08 07:16:00,
2013-05-08 03:21:00,57.2,54.3,30.10,NNE,30,0.0,0.0,90,0.00,,,0.00,meteobridge,2013-05-08 07:21:00,
2013-05-08 03:27:00,57.0,54.1,30.11,NNE,30,0.0,0.9,90,0.00,,,0.00,meteobridge,2013-05-08 07:27:00,
2013-05-08 03:32:00,57.0,54.1,30.10,NNE,30,0.0,0.0,90,0.00,,,0.00,meteobridge,2013-05-08 07:32:00,
2013-05-08 03:37:00,57.0,54.1,30.10,NNE,30,0.0,0.0,90,0.00,,,0.00,meteobridge,2013-05-08 07:37:00,
2013-05-08 03:42:00,56.8,54.0,30.10,NNE,30,0.0,0.0,90,0.00,,,0.00,meteobridge,2013-05-08 07:42:00,
2013-05-08 03:48:00,56.8,54.0,30.10,NNE,30,0.0,0.0,90,0.00,,,0.00,meteobridge,2013-05-08 07:48:00,
2013-05-08 03:53:00,56.7,54.1,30.10,NNE,30,0.0,0.0,91,0.00,,,0.00,meteobridge,2013-05-08 07:53:00,
2013-05-08 03:58:00,56.7,54.1,30.10,NNE,30,0.0,0.0,91,0.00,,,0.00,meteobridge,2013-05-08 07:58:00,
2013-05-08 04:03:00,56.7,54.3,30.10,NNE,30,0.0,0.0,92,0.00,,,0.00,meteobridge,2013-05-08 08:03:00,
2013-05-08 04:08:00,56.7,54.7,30.09,NNE,30,0.0,0.0,93,0.00,,,0.00,meteobridge,2013-05-08 08:08:00,
2013-05-08 04:14:00,56.7,54.3,30.10,NNE,30,0.0,0.0,92,0.00,,,0.00,meteobridge,2013-05-08 08:14:00,
2013-05-08 04:19:00,56.7,54.7,30.09,NNE,30,0.0,0.0,93,0.00,,,0.00,meteobridge,2013-05-08 08:19:00,
2013-05-08 04:24:00,56.7,54.7,30.09,NNE,30,0.0,0.0,93,0.00,,,0.00,meteobridge,2013-05-08 08:24:00,
2013-05-08 04:30:00,56.7,55.0,30.09,NNE,30,0.0,0.0,94,0.00,,,0.00,meteobridge,2013-05-08 08:30:00,
2013-05-08 04:35:00,56.7,55.0,30.09,NNE,30,0.0,0.0,94,0.00,,,0.00,meteobridge,2013-05-08 08:35:00,
2013-05-08 04:41:00,56.8,55.2,30.09,NNE,30,0.0,0.0,94,0.00,,,0.00,meteobridge,2013-05-08 08:41:00,
2013-05-08 04:46:00,56.8,55.2,30.09,NNE,30,0.0,0.0,94,0.00,,,0.00,meteobridge,2013-05-08 08:46:00,
2013-05-08 04:51:00,56.8,55.2,30.09,NNE,30,0.0,0.0,94,0.00,,,0.00,meteobridge,2013-05-08 08:51:00,
2013-05-08 04:57:00,57.0,55.2,30.09,NNE,30,0.0,0.0,94,0.00,,,0.00,meteobridge,2013-05-08 08:57:00,
2013-05-08 05:02:00,57.0,55.2,30.09,NNE,30,0.0,0.0,94,0.00,,,0.00,meteobridge,2013-05-08 09:02:00,
2013-05-08 05:08:00,57.2,55.2,30.09,NNE,30,0.0,0.0,93,0.00,,,0.00,meteobridge,2013-05-08 09:08:00,
2013-05-08 05:13:00,57.4,55.4,30.09,NNE,30,0.0,0.0,93,0.00,,,0.00,meteobridge,2013-05-08 09:13:00,
2013-05-08 05:18:00,57.4,55.4,30.09,NNE,30,0.0,0.0,93,0.00,,,0.00,meteobridge,2013-05-08 09:18:00,
2013-05-08 05:23:00,57.4,55.4,30.09,NNE,30,0.0,0.0,93,0.00,,,0.00,meteobridge,2013-05-08 09:23:00,
2013-05-08 05:29:00,57.4,55.4,30.09,NNE,30,0.0,0.0,93,0.00,,,0.00,meteobridge,2013-05-08 09:29:00,
2013-05-08 05:34:00,57.4,55.4,30.10,NNE,30,0.0,0.0,93,0.00,,,0.00,meteobridge,2013-05-08 09:34:00,
2013-05-08 05:39:00,57.6,55.6,30.10,NNE,30,0.0,0.9,93,0.00,,,0.00,meteobridge,2013-05-08 09:39:00,
2013-05-08 05:45:00,57.6,55.6,30.10,NNE,30,0.0,0.0,93,0.00,,,0.00,meteobridge,2013-05-08 09:45:00,
2013-05-08 05:50:00,57.6,55.6,30.10,NNE,30,0.0,0.0,93,0.00,,,0.00,meteobridge,2013-05-08 09:50:00,
2013-05-08 05:55:00,57.6,55.6,30.10,NNE,30,0.0,0.0,93,0.00,,,0.00,meteobridge,2013-05-08 09:55:00,
2013-05-08 06:00:00,57.6,55.6,30.10,NNE,30,0.0,0.0,93,0.00,,,0.00,meteobridge,2013-05-08 10:00:00,
2013-05-08 06:05:00,57.7,55.8,30.10,NNE,30,0.0,0.0,93,0.00,,,0.00,meteobridge,2013-05-08 10:05:00,
2013-05-08 06:10:00,57.7,55.8,30.10,NNE,30,0.0,0.0,93,0.00,,,0.00,meteobridge,2013-05-08 10:10:00,
2013-05-08 06:16:00,57.7,55.8,30.11,NNE,30,0.0,0.0,93,0.00,,,0.00,meteobridge,2013-05-08 10:16:00,
2013-05-08 06:21:00,57.9,55.9,30.11,NNE,30,0.0,0.0,93,0.00,,,0.00,meteobridge,2013-05-08 10:21:00,
2013-05-08 06:27:00,57.9,55.6,30.10,NNE,30,0.0,0.0,92,0.00,,,0.00,meteobridge,2013-05-08 10:27:00,
2013-05-08 06:32:00,58.1,55.8,30.10,NNE,30,0.0,0.0,92,0.00,,,0.00,meteobridge,2013-05-08 10:32:00,
2013-05-08 06:37:00,58.3,55.9,30.11,NNE,30,0.0,0.0,92,0.00,,,0.00,meteobridge,2013-05-08 10:37:00,
2013-05-08 06:42:00,58.3,55.9,30.11,NNE,30,0.0,0.0,92,0.00,,,0.00,meteobridge,2013-05-08 10:42:00,
2013-05-08 06:48:00,58.3,55.9,30.11,NNE,30,0.0,0.0,92,0.00,,,0.00,meteobridge,2013-05-08 10:48:00,
2013-05-08 06:53:00,58.3,55.9,30.11,NNE,30,0.0,0.0,92,0.00,,,0.00,meteobridge,2013-05-08 10:53:00,
2013-05-08 06:58:00,58.3,55.9,30.11,NNE,30,0.0,0.0,92,0.00,,,0.00,meteobridge,2013-05-08 10:58:00,
2013-05-08 07:04:00,58.3,55.9,30.11,NNE,30,0.0,0.0,92,0.00,,,0.00,meteobridge,2013-05-08 11:04:00,
2013-05-08 07:09:00,58.5,56.1,30.11,NNE,30,0.0,0.0,92,0.00,,,0.00,meteobridge,2013-05-08 11:09:00,
2013-05-08 07:15:00,58.5,56.1,30.11,NNE,30,0.0,0.0,92,0.00,,,0.00,meteobridge,2013-05-08 11:15:00,
2013-05-08 07:20:00,58.5,56.1,30.11,NNE,30,0.0,0.0,92,0.00,,,0.00,meteobridge,2013-05-08 11:20:00,
2013-05-08 07:26:00,58.5,56.1,30.11,NNE,30,0.0,0.0,92,0.00,,,0.00,meteobridge,2013-05-08 11:26:00,
2013-05-08 07:31:00,58.6,56.3,30.11,NNE,30,0.0,0.0,92,0.00,,,0.00,meteobridge,2013-05-08 11:31:00,
2013-05-08 07:36:00,58.6,56.3,30.11,NNE,30,0.0,0.0,92,0.00,,,0.00,meteobridge,2013-05-08 11:36:00,
2013-05-08 07:41:00,58.6,56.3,30.12,NNE,30,0.0,0.0,92,0.00,,,0.00,meteobridge,2013-05-08 11:41:00,
2013-05-08 07:46:00,58.8,56.5,30.12,NNE,30,0.0,0.0,92,0.00,,,0.00,meteobridge,2013-05-08 11:46:00,
2013-05-08 07:51:00,59.0,56.7,30.12,NNE,30,0.0,0.0,92,0.00,,,0.00,meteobridge,2013-05-08 11:51:00,
2013-05-08 07:57:00,59.2,56.8,30.12,NNE,30,0.0,0.0,92,0.00,,,0.00,meteobridge,2013-05-08 11:57:00,
2013-05-08 08:02:00,59.2,56.8,30.11,NNE,30,0.0,0.0,92,0.00,,,0.00,meteobridge,2013-05-08 12:02:00,
2013-05-08 08:07:00,59.2,56.8,30.11,NNE,30,0.0,0.0,92,0.00,,,0.00,meteobridge,2013-05-08 12:07:00,
2013-05-08 08:12:00,59.2,56.8,30.11,NNE,30,0.0,0.0,92,0.00,,,0.00,meteobridge,2013-05-08 12:12:00,
2013-05-08 08:17:00,59.2,56.8,30.11,NNE,30,0.0,0.0,92,0.00,,,0.00,meteobridge,2013-05-08 12:17:00,
2013-05-08 08:23:00,59.2,57.2,30.11,NNE,30,0.0,0.0,93,0.00,,,0.00,meteobridge,2013-05-08 12:23:00,
2013-05-08 08:28:00,59.2,57.2,30.11,NNE,30,0.0,0.0,93,0.01,,,0.01,meteobridge,2013-05-08 12:28:00,
2013-05-08 08:33:00,59.0,57.2,30.11,NNE,30,0.0,0.0,94,0.01,,,0.01,meteobridge,2013-05-08 12:33:00,
2013-05-08 08:39:00,58.8,57.0,30.11,NNE,30,0.0,0.0,94,0.02,,,0.02,meteobridge,2013-05-08 12:39:00,
2013-05-08 08:44:00,58.8,57.4,30.11,NNE,30,0.0,0.0,95,0.02,,,0.02,meteobridge,2013-05-08 12:44:00,
2013-05-08 08:50:00,58.8,57.4,30.11,NNE,30,0.0,0.0,95,0.02,,,0.02,meteobridge,2013-05-08 12:50:00,
2013-05-08 08:55:00,59.0,57.6,30.11,NNE,30,0.0,0.0,95,0.02,,,0.02,meteobridge,2013-05-08 12:55:00,
2013-05-08 09:01:00,59.0,57.6,30.11,NNE,30,0.0,0.0,95,0.02,,,0.02,meteobridge,2013-05-08 13:01:00,
2013-05-08 09:06:00,59.0,57.6,30.10,NNE,30,0.0,0.0,95,0.03,,,0.03,meteobridge,2013-05-08 13:06:00,
2013-05-08 09:11:00,58.8,57.7,30.10,NNE,30,0.0,0.0,96,0.04,,,0.04,meteobridge,2013-05-08 13:11:00,
2013-05-08 09:17:00,58.8,57.7,30.10,NNE,30,0.0,0.0,96,0.04,,,0.04,meteobridge,2013-05-08 13:17:00,
2013-05-08 09:22:00,59.0,57.9,30.10,NNE,30,0.0,0.0,96,0.05,,,0.05,meteobridge,2013-05-08 13:22:00,
2013-05-08 09:27:00,59.0,57.9,30.10,NNE,30,0.0,0.0,96,0.05,,,0.06,meteobridge,2013-05-08 13:27:00,
2013-05-08 09:32:00,59.0,57.9,30.11,NE,46,0.0,0.0,96,0.11,,,0.12,meteobridge,2013-05-08 13:32:00,
2013-05-08 09:38:00,59.2,58.3,30.11,SSW,198,0.0,0.0,97,0.25,,,0.27,meteobridge,2013-05-08 13:38:00,
2013-05-08 09:43:00,59.2,58.3,30.11,SSW,198,0.0,0.0,97,0.25,,,0.27,meteobridge,2013-05-08 13:43:00,
2013-05-08 09:48:00,59.4,58.5,30.10,SSW,198,0.0,0.0,97,0.25,,,0.27,meteobridge,2013-05-08 13:48:00,
2013-05-08 09:53:00,59.5,58.6,30.10,SSW,198,0.0,0.0,97,0.25,,,0.27,meteobridge,2013-05-08 13:53:00,
2013-05-08 09:59:00,59.7,58.8,30.10,SSW,198,0.0,0.0,97,0.25,,,0.27,meteobridge,2013-05-08 13:59:00,
2013-05-08 10:04:00,59.7,58.8,30.10,SSW,198,0.0,0.0,97,0.25,,,0.28,meteobridge,2013-05-08 14:04:00,
2013-05-08 10:09:00,59.9,59.0,30.10,SSE,167,0.0,0.0,97,0.24,,,0.28,meteobridge,2013-05-08 14:09:00,
2013-05-08 10:14:00,60.1,59.2,30.10,SSE,167,0.0,0.0,97,0.24,,,0.28,meteobridge,2013-05-08 14:14:00,
2013-05-08 10:20:00,60.3,59.7,30.09,SE,142,0.0,0.0,98,0.23,,,0.28,meteobridge,2013-05-08 14:20:00,
2013-05-08 10:25:00,60.4,59.9,30.09,ESE,109,0.0,0.0,98,0.22,,,0.28,meteobridge,2013-05-08 14:25:00,
2013-05-08 10:31:00,60.6,60.1,30.09,ESE,109,0.0,0.0,98,0.22,,,0.29,meteobridge,2013-05-08 14:31:00,
2013-05-08 10:36:00,60.8,60.3,30.09,ENE,74,0.0,0.0,98,0.03,,,0.29,meteobridge,2013-05-08 14:36:00,
2013-05-08 10:41:00,61.0,60.4,30.09,ENE,74,0.0,0.0,98,0.02,,,0.29,meteobridge,2013-05-08 14:41:00,
2013-05-08 10:46:00,61.0,60.4,30.09,ENE,74,0.0,0.0,98,0.03,,,0.30,meteobridge,2013-05-08 14:46:00,
2013-05-08 10:51:00,61.0,60.4,30.09,ENE,74,0.0,0.0,98,0.04,,,0.31,meteobridge,2013-05-08 14:51:00,
2013-05-08 10:56:00,61.0,60.4,30.09,ENE,65,0.0,0.0,98,0.05,,,0.32,meteobridge,2013-05-08 14:56:00,
2013-05-08 11:01:00,61.0,60.4,30.09,ENE,67,0.0,2.0,98,0.06,,,0.34,meteobridge,2013-05-08 15:01:00,
2013-05-08 11:06:00,60.8,60.3,30.09,NE,56,0.9,2.9,98,0.07,,,0.35,meteobridge,2013-05-08 15:06:00,
2013-05-08 11:12:00,60.8,60.3,30.09,NE,56,0.0,0.0,98,0.09,,,0.37,meteobridge,2013-05-08 15:12:00,
2013-05-08 11:17:00,61.0,60.4,30.09,NNE,12,0.0,2.9,98,0.09,,,0.37,meteobridge,2013-05-08 15:17:00,
2013-05-08 11:23:00,61.0,60.4,30.09,ENE,76,0.0,0.0,98,0.10,,,0.38,meteobridge,2013-05-08 15:23:00,
2013-05-08 11:28:00,61.2,60.6,30.09,ENE,67,0.9,0.9,98,0.12,,,0.40,meteobridge,2013-05-08 15:28:00,
2013-05-08 11:33:00,61.2,60.6,30.09,ENE,67,0.0,0.0,98,0.13,,,0.42,meteobridge,2013-05-08 15:33:00,
2013-05-08 11:39:00,61.3,60.8,30.09,ENE,67,0.0,0.0,98,0.13,,,0.42,meteobridge,2013-05-08 15:39:00,
2013-05-08 11:44:00,61.3,60.8,30.08,ENE,67,0.0,0.9,98,0.12,,,0.42,meteobridge,2013-05-08 15:44:00,
2013-05-08 11:49:00,61.7,61.2,30.08,ENE,67,0.0,0.0,98,0.11,,,0.42,meteobridge,2013-05-08 15:49:00,
2013-05-08 11:55:00,62.1,61.5,30.07,ENE,67,0.0,0.0,98,0.10,,,0.42,meteobridge,2013-05-08 15:55:00,
2013-05-08 12:00:00,62.2,61.7,30.07,NNW,332,0.9,0.9,98,0.08,,,0.42,meteobridge,2013-05-08 16:00:00,
2013-05-08 12:05:00,62.2,61.7,30.07,ESE,105,0.0,0.9,98,0.06,,,0.42,meteobridge,2013-05-08 16:05:00,
2013-05-08 12:11:00,62.4,61.9,30.07,ESE,105,0.0,0.9,98,0.05,,,0.42,meteobridge,2013-05-08 16:11:00,
2013-05-08 12:16:00,62.4,61.9,30.07,NNE,28,0.0,0.9,98,0.05,,,0.42,meteobridge,2013-05-08 16:16:00,
2013-05-08 12:21:00,62.2,61.7,30.06,North,5,0.0,0.9,98,0.04,,,0.42,meteobridge,2013-05-08 16:21:00,
2013-05-08 12:26:00,62.4,61.9,30.06,North,5,0.0,0.0,98,0.02,,,0.42,meteobridge,2013-05-08 16:26:00,
2013-05-08 12:32:00,62.8,62.2,30.06,NE,34,0.0,0.0,98,0.00,,,0.42,meteobridge,2013-05-08 16:32:00,
2013-05-08 12:37:00,62.8,62.2,30.05,SE,125,0.9,0.9,98,0.00,,,0.42,meteobridge,2013-05-08 16:37:00,
2013-05-08 12:42:00,62.8,62.2,30.05,ENE,67,0.0,0.9,98,0.00,,,0.42,meteobridge,2013-05-08 16:42:00,
2013-05-08 12:47:00,62.8,62.2,30.05,East,98,0.0,0.9,98,0.00,,,0.42,meteobridge,2013-05-08 16:47:00,
2013-05-08 12:52:00,62.6,62.1,30.05,East,98,0.0,0.0,98,0.00,,,0.42,meteobridge,2013-05-08 16:52:00,
2013-05-08 12:58:00,62.8,62.2,30.04,ENE,65,0.0,0.9,98,0.00,,,0.42,meteobridge,2013-05-08 16:58:00,
2013-05-08 13:03:00,63.0,62.4,30.03,ENE,69,0.0,2.0,98,0.00,,,0.42,meteobridge,2013-05-08 17:03:00,
2013-05-08 13:09:00,63.0,62.4,30.03,North,9,0.0,2.0,98,0.00,,,0.42,meteobridge,2013-05-08 17:09:00,
2013-05-08 13:14:00,62.8,62.2,30.03,North,9,0.9,0.9,98,0.00,,,0.42,meteobridge,2013-05-08 17:14:00,
2013-05-08 13:19:00,62.8,62.2,30.03,North,5,0.0,0.9,98,0.00,,,0.42,meteobridge,2013-05-08 17:19:00,
2013-05-08 13:24:00,62.6,61.7,30.03,East,90,0.0,0.0,97,0.00,,,0.42,meteobridge,2013-05-08 17:24:00,
2013-05-08 13:29:00,62.4,61.5,30.03,East,90,0.0,0.9,97,0.01,,,0.43,meteobridge,2013-05-08 17:29:00,
2013-05-08 13:35:00,62.4,61.5,30.03,ENE,61,0.0,2.0,97,0.01,,,0.43,meteobridge,2013-05-08 17:35:00,
2013-05-08 13:40:00,62.2,61.3,30.03,ESE,116,0.0,2.0,97,0.01,,,0.43,meteobridge,2013-05-08 17:40:00,
2013-05-08 13:46:00,62.2,61.3,30.03,NE,49,0.9,2.0,97,0.02,,,0.44,meteobridge,2013-05-08 17:46:00,
2013-05-08 13:51:00,62.1,61.2,30.03,ENE,77,0.0,0.9,97,0.03,,,0.45,meteobridge,2013-05-08 17:51:00,
2013-05-08 13:56:00,62.1,61.2,30.02,NNE,14,0.0,2.0,97,0.07,,,0.49,meteobridge,2013-05-08 17:56:00,
2013-05-08 14:01:00,62.1,61.2,30.02,NE,42,0.0,2.9,97,0.10,,,0.52,meteobridge,2013-05-08 18:01:00,
2013-05-08 14:06:00,61.9,61.0,30.02,East,86,0.0,0.9,97,0.12,,,0.54,meteobridge,2013-05-08 18:06:00,
2013-05-08 14:12:00,61.9,61.0,30.03,NNW,345,0.0,0.9,97,0.12,,,0.54,meteobridge,2013-05-08 18:12:00,
2013-05-08 14:17:00,61.9,61.0,30.02,NE,46,0.9,2.0,97,0.12,,,0.54,meteobridge,2013-05-08 18:17:00,
2013-05-08 14:23:00,61.7,61.2,30.03,ESE,110,0.0,2.0,98,0.13,,,0.55,meteobridge,2013-05-08 18:23:00,
2013-05-08 14:28:00,61.5,61.0,30.03,ESE,111,0.9,2.0,98,0.12,,,0.55,meteobridge,2013-05-08 18:28:00,
2013-05-08 14:33:00,61.5,61.0,30.03,SSE,164,0.0,2.0,98,0.13,,,0.56,meteobridge,2013-05-08 18:33:00,
2013-05-08 14:39:00,61.3,60.8,30.03,East,84,0.0,2.0,98,0.13,,,0.56,meteobridge,2013-05-08 18:39:00,
2013-05-08 14:44:00,61.3,60.4,30.03,NNE,31,0.0,0.9,97,0.12,,,0.56,meteobridge,2013-05-08 18:44:00,
2013-05-08 14:50:00,61.3,60.4,30.03,NNE,29,0.9,0.9,97,0.12,,,0.56,meteobridge,2013-05-08 18:50:00,
2013-05-08 14:55:00,61.3,60.8,30.03,NE,54,0.0,2.0,98,0.07,,,0.56,meteobridge,2013-05-08 18:55:00,
2013-05-08 15:00:00,61.3,60.8,30.03,NE,42,2.0,2.0,98,0.04,,,0.56,meteobridge,2013-05-08 19:00:00,
2013-05-08 15:05:00,61.2,60.6,30.02,NNE,31,0.0,2.0,98,0.02,,,0.56,meteobridge,2013-05-08 19:05:00,
2013-05-08 15:10:00,61.2,60.6,30.02,NE,46,0.9,0.9,98,0.02,,,0.56,meteobridge,2013-05-08 19:10:00,
2013-05-08 15:16:00,61.2,60.6,30.02,NE,39,0.0,0.9,98,0.02,,,0.56,meteobridge,2013-05-08 19:16:00,
2013-05-08 15:21:00,61.3,60.8,30.02,ENE,74,0.0,0.9,98,0.01,,,0.56,meteobridge,2013-05-08 19:21:00,
2013-05-08 15:27:00,61.3,60.8,30.02,ENE,74,0.0,0.0,98,0.01,,,0.56,meteobridge,2013-05-08 19:27:00,
2013-05-08 15:32:00,61.3,60.8,30.02,NE,55,0.9,0.9,98,0.00,,,0.56,meteobridge,2013-05-08 19:32:00,
2013-05-08 15:37:00,61.3,60.8,30.02,NNW,348,0.0,2.9,98,0.00,,,0.56,meteobridge,2013-05-08 19:37:00,
2013-05-08 15:43:00,61.3,60.8,30.02,North,5,0.0,0.0,98,0.00,,,0.56,meteobridge,2013-05-08 19:43:00,
2013-05-08 15:48:00,61.3,60.8,30.02,East,84,0.9,2.0,98,0.00,,,0.56,meteobridge,2013-05-08 19:48:00,
2013-05-08 15:53:00,61.3,60.8,30.01,NE,44,0.0,2.9,98,0.00,,,0.56,meteobridge,2013-05-08 19:53:00,
2013-05-08 15:58:00,61.3,60.8,30.02,NE,36,0.0,0.9,98,0.00,,,0.56,meteobridge,2013-05-08 19:58:00,
2013-05-08 16:04:00,61.3,60.8,30.02,SE,142,0.9,0.9,98,0.00,,,0.56,meteobridge,2013-05-08 20:04:00,
2013-05-08 16:09:00,61.3,60.8,30.02,NNW,332,0.0,2.0,98,0.00,,,0.56,meteobridge,2013-05-08 20:09:00,
2013-05-08 16:14:00,61.3,60.8,30.02,SE,132,2.0,2.9,98,0.00,,,0.56,meteobridge,2013-05-08 20:14:00,
2013-05-08 16:19:00,61.3,60.8,30.02,NE,53,0.0,2.0,98,0.00,,,0.56,meteobridge,2013-05-08 20:19:00,
2013-05-08 16:25:00,61.3,60.8,30.02,NE,50,0.9,0.9,98,0.00,,,0.56,meteobridge,2013-05-08 20:25:00,
2013-05-08 16:30:00,61.3,60.8,30.02,ENE,70,0.0,0.9,98,0.00,,,0.56,meteobridge,2013-05-08 20:30:00,
2013-05-08 16:35:00,61.3,60.8,30.02,NE,51,0.0,0.9,98,0.00,,,0.56,meteobridge,2013-05-08 20:35:00,
2013-05-08 16:40:00,61.3,60.8,30.03,NE,51,0.0,0.0,98,0.00,,,0.56,meteobridge,2013-05-08 20:40:00,
2013-05-08 16:45:00,61.5,61.0,30.03,ENE,69,2.0,2.9,98,0.00,,,0.56,meteobridge,2013-05-08 20:45:00,
2013-05-08 16:50:00,61.5,61.0,30.03,East,83,0.0,2.0,98,0.00,,,0.56,meteobridge,2013-05-08 20:50:00,
2013-05-08 16:55:00,61.5,61.0,30.03,ENE,73,0.0,0.0,98,0.00,,,0.56,meteobridge,2013-05-08 20:55:00,
2013-05-08 17:00:00,61.5,61.0,30.03,ENE,73,0.0,0.9,98,0.00,,,0.56,meteobridge,2013-05-08 21:00:00,
2013-05-08 17:06:00,61.5,61.0,30.03,NE,49,0.0,0.0,98,0.00,,,0.56,meteobridge,2013-05-08 21:06:00,
2013-05-08 17:11:00,61.5,61.0,30.02,NE,46,0.0,0.0,98,0.00,,,0.56,meteobridge,2013-05-08 21:11:00,
2013-05-08 17:16:00,61.9,61.3,30.02,East,101,0.0,0.0,98,0.00,,,0.56,meteobridge,2013-05-08 21:16:00,
2013-05-08 17:22:00,62.1,61.5,30.02,East,84,0.0,0.0,98,0.00,,,0.56,meteobridge,2013-05-08 21:22:00,
2013-05-08 17:27:00,62.2,61.7,30.02,ENE,66,0.0,2.0,98,0.00,,,0.56,meteobridge,2013-05-08 21:27:00,
2013-05-08 17:33:00,62.4,62.1,30.01,ENE,62,0.0,0.0,99,0.00,,,0.56,meteobridge,2013-05-08 21:33:00,
2013-05-08 17:39:00,62.6,62.1,30.01,ENE,62,0.0,0.9,98,0.00,,,0.56,meteobridge,2013-05-08 21:39:00,
2013-05-08 17:44:00,62.4,61.9,30.01,East,80,0.9,0.9,98,0.00,,,0.56,meteobridge,2013-05-08 21:44:00,
2013-05-08 17:49:00,62.4,61.9,30.01,ENE,70,0.0,2.0,98,0.00,,,0.56,meteobridge,2013-05-08 21:49:00,
2013-05-08 17:54:00,62.4,61.9,30.01,NW,319,0.0,2.9,98,0.00,,,0.56,meteobridge,2013-05-08 21:54:00,
2013-05-08 17:59:00,62.6,62.1,30.00,ENE,67,0.9,0.9,98,0.00,,,0.56,meteobridge,2013-05-08 21:59:00,
2013-05-08 18:05:00,62.4,61.9,30.00,East,85,0.0,0.9,98,0.00,,,0.56,meteobridge,2013-05-08 22:05:00,
2013-05-08 18:11:00,62.4,61.5,30.00,East,81,0.0,0.9,97,0.00,,,0.56,meteobridge,2013-05-08 22:11:00,
2013-05-08 18:16:00,62.2,61.3,30.00,East,81,0.0,0.0,97,0.00,,,0.56,meteobridge,2013-05-08 22:16:00,
2013-05-08 18:21:00,62.2,61.3,30.00,East,81,0.0,0.0,97,0.00,,,0.56,meteobridge,2013-05-08 22:21:00,
2013-05-08 18:26:00,62.1,61.2,30.01,East,81,0.0,0.0,97,0.00,,,0.56,meteobridge,2013-05-08 22:26:00,
2013-05-08 18:32:00,62.1,61.2,30.01,ENE,78,0.0,0.0,97,0.00,,,0.56,meteobridge,2013-05-08 22:32:00,
2013-05-08 18:37:00,62.1,61.2,30.01,ENE,78,0.0,0.0,97,0.00,,,0.56,meteobridge,2013-05-08 22:37:00,
2013-05-08 18:42:00,62.1,61.2,30.01,ENE,78,0.0,0.0,97,0.00,,,0.56,meteobridge,2013-05-08 22:42:00,
2013-05-08 18:48:00,62.1,61.2,30.01,NE,44,0.0,0.0,97,0.00,,,0.56,meteobridge,2013-05-08 22:48:00,
2013-05-08 18:53:00,61.9,61.0,30.01,NE,44,0.0,0.9,97,0.00,,,0.56,meteobridge,2013-05-08 22:53:00,
2013-05-08 18:58:00,61.9,61.0,30.01,NE,44,0.0,0.0,97,0.00,,,0.56,meteobridge,2013-05-08 22:58:00,
2013-05-08 19:03:00,61.7,60.8,30.01,NE,54,0.0,2.0,97,0.00,,,0.56,meteobridge,2013-05-08 23:03:00,
2013-05-08 19:09:00,61.5,60.6,30.01,SSW,205,0.0,0.9,97,0.00,,,0.56,meteobridge,2013-05-08 23:09:00,
2013-05-08 19:14:00,61.5,60.6,30.01,SE,129,0.0,0.9,97,0.00,,,0.56,meteobridge,2013-05-08 23:14:00,
2013-05-08 19:19:00,61.3,60.4,30.01,ENE,63,0.0,0.0,97,0.00,,,0.56,meteobridge,2013-05-08 23:19:00,
2013-05-08 19:25:00,61.3,60.4,30.01,ENE,63,0.0,0.0,97,0.00,,,0.56,meteobridge,2013-05-08 23:25:00,
2013-05-08 19:30:00,61.2,60.3,30.01,East,88,0.0,0.9,97,0.00,,,0.56,meteobridge,2013-05-08 23:30:00,
2013-05-08 19:36:00,61.0,59.9,30.01,East,88,0.9,0.9,96,0.00,,,0.56,meteobridge,2013-05-08 23:36:00,
2013-05-08 19:41:00,60.6,59.5,30.01,NE,49,0.0,2.0,96,0.00,,,0.56,meteobridge,2013-05-08 23:41:00,
2013-05-08 19:47:00,60.3,59.2,30.01,NE,47,0.0,0.0,96,0.00,,,0.56,meteobridge,2013-05-08 23:47:00,
2013-05-08 19:53:00,60.1,59.0,30.01,NE,47,0.0,0.0,96,0.00,,,0.56,meteobridge,2013-05-08 23:53:00,
2013-05-08 19:58:00,59.9,58.8,30.01,NE,53,0.0,0.9,96,0.00,,,0.56,meteobridge,2013-05-08 23:58:00,
2013-05-08 20:04:00,59.7,58.6,30.02,NE,56,0.0,0.0,96,0.00,,,0.00,meteobridge,2013-05-09 00:04:00,
2013-05-08 20:10:00,59.5,58.6,30.02,NE,56,0.0,0.0,97,0.00,,,0.00,meteobridge,2013-05-09 00:10:00,
2013-05-08 20:15:00,59.4,58.5,30.02,ENE,61,0.0,2.0,97,0.00,,,0.00,meteobridge,2013-05-09 00:15:00,
2013-05-08 20:21:00,59.2,58.1,30.02,ENE,61,0.0,0.9,96,0.00,,,0.00,meteobridge,2013-05-09 00:21:00,
2013-05-08 20:26:00,59.0,58.1,30.02,ENE,64,0.0,0.9,97,0.00,,,0.00,meteobridge,2013-05-09 00:26:00,
2013-05-08 20:32:00,58.8,57.9,30.02,ENE,64,0.0,0.0,97,0.00,,,0.00,meteobridge,2013-05-09 00:32:00,
2013-05-08 20:37:00,58.8,57.9,30.02,ENE,63,0.0,0.0,97,0.00,,,0.00,meteobridge,2013-05-09 00:37:00,
2013-05-08 20:43:00,58.6,57.7,30.03,ENE,63,0.0,0.9,97,0.00,,,0.00,meteobridge,2013-05-09 00:43:00,
2013-05-08 20:48:00,58.6,57.7,30.02,ENE,63,0.0,0.0,97,0.00,,,0.00,meteobridge,2013-05-09 00:48:00,
2013-05-08 20:54:00,58.6,57.7,30.03,ENE,61,0.0,0.0,97,0.00,,,0.00,meteobridge,2013-05-09 00:54:00,
2013-05-08 20:59:00,58.5,57.6,30.03,ENE,61,0.0,0.0,97,0.00,,,0.00,meteobridge,2013-05-09 00:59:00,
2013-05-08 21:04:00,58.5,57.6,30.03,ENE,74,0.0,0.0,97,0.00,,,0.00,meteobridge,2013-05-09 01:04:00,
2013-05-08 21:10:00,58.5,57.6,30.03,SW,215,0.9,0.9,97,0.00,,,0.00,meteobridge,2013-05-09 01:10:00,
2013-05-08 21:15:00,58.5,57.6,30.03,South,190,0.9,2.0,97,0.00,,,0.00,meteobridge,2013-05-09 01:15:00,
2013-05-08 21:20:00,58.3,57.4,30.04,East,86,0.0,0.9,97,0.00,,,0.00,meteobridge,2013-05-09 01:20:00,
2013-05-08 21:25:00,58.3,57.4,30.04,SE,134,0.0,0.0,97,0.00,,,0.00,meteobridge,2013-05-09 01:25:00,
2013-05-08 21:31:00,58.1,57.2,30.05,SE,134,0.0,0.9,97,0.00,,,0.00,meteobridge,2013-05-09 01:31:00,
2013-05-08 21:36:00,58.1,57.2,30.05,SE,134,0.0,0.0,97,0.00,,,0.00,meteobridge,2013-05-09 01:36:00,
2013-05-08 21:41:00,57.9,57.0,30.05,ENE,69,0.0,0.0,97,0.00,,,0.00,meteobridge,2013-05-09 01:41:00,
2013-05-08 21:47:00,57.9,57.0,30.05,SSW,196,0.0,0.0,97,0.00,,,0.00,meteobridge,2013-05-09 01:47:00,
2013-05-08 21:52:00,57.7,56.8,30.05,SSW,205,0.0,0.0,97,0.00,,,0.00,meteobridge,2013-05-09 01:52:00,
2013-05-08 21:57:00,57.7,56.8,30.05,SSW,205,0.0,0.0,97,0.00,,,0.00,meteobridge,2013-05-09 01:57:00,
2013-05-08 22:02:00,57.6,56.7,30.05,SSW,205,0.0,0.9,97,0.00,,,0.00,meteobridge,2013-05-09 02:02:00,
2013-05-08 22:08:00,57.4,56.5,30.05,SSW,205,0.0,0.0,97,0.00,,,0.00,meteobridge,2013-05-09 02:08:00,
2013-05-08 22:14:00,57.4,56.5,30.05,SSW,205,0.0,0.0,97,0.00,,,0.00,meteobridge,2013-05-09 02:14:00,
2013-05-08 22:19:00,57.2,56.3,30.05,SSW,205,0.0,0.0,97,0.00,,,0.00,meteobridge,2013-05-09 02:19:00,
2013-05-08 22:24:00,57.0,56.1,30.05,SSW,211,0.0,0.9,97,0.00,,,0.00,meteobridge,2013-05-09 02:24:00,
2013-05-08 22:29:00,56.8,55.9,30.05,SSW,211,0.0,0.0,97,0.00,,,0.00,meteobridge,2013-05-09 02:29:00,
2013-05-08 22:35:00,56.8,55.9,30.05,SSW,211,0.0,0.0,97,0.00,,,0.00,meteobridge,2013-05-09 02:35:00,
2013-05-08 22:41:00,56.7,55.8,30.05,SSW,211,0.0,0.0,97,0.00,,,0.00,meteobridge,2013-05-09 02:41:00,
2013-05-08 22:46:00,56.5,55.6,30.05,SSW,211,0.0,0.0,97,0.00,,,0.00,meteobridge,2013-05-09 02:46:00,
2013-05-08 22:51:00,56.5,55.6,30.04,SSW,211,0.0,0.0,97,0.00,,,0.00,meteobridge,2013-05-09 02:51:00,
2013-05-08 22:57:00,56.1,55.2,30.04,SSW,211,0.0,0.0,97,0.00,,,0.00,meteobridge,2013-05-09 02:57:00,
2013-05-08 23:02:00,55.9,55.0,30.04,SSW,211,0.0,0.0,97,0.00,,,0.00,meteobridge,2013-05-09 03:02:00,
2013-05-08 23:08:00,55.9,55.0,30.04,SSW,211,0.0,0.0,97,0.00,,,0.00,meteobridge,2013-05-09 03:08:00,
2013-05-08 23:13:00,55.8,54.9,30.04,SSW,211,0.0,0.0,97,0.00,,,0.00,meteobridge,2013-05-09 03:13:00,
2013-05-08 23:18:00,55.6,54.7,30.04,SSW,211,0.0,0.0,97,0.00,,,0.00,meteobridge,2013-05-09 03:18:00,
2013-05-08 23:23:00,55.4,54.5,30.04,SSW,211,0.0,0.0,97,0.00,,,0.00,meteobridge,2013-05-09 03:23:00,
2013-05-08 23:28:00,55.2,54.3,30.04,SSW,211,0.0,0.0,97,0.00,,,0.00,meteobridge,2013-05-09 03:28:00,
2013-05-08 23:34:00,55.0,54.1,30.03,SSW,211,0.0,0.0,97,0.00,,,0.00,meteobridge,2013-05-09 03:34:00,
2013-05-08 23:39:00,55.0,54.1,30.04,SSW,211,0.0,0.0,97,0.00,,,0.00,meteobridge,2013-05-09 03:39:00,
2013-05-08 23:45:00,54.9,54.0,30.04,SSW,211,0.0,0.0,97,0.00,,,0.00,meteobridge,2013-05-09 03:45:00,
2013-05-08 23:50:00,54.7,53.8,30.04,SSW,211,0.0,0.0,97,0.00,,,0.00,meteobridge,2013-05-09 03:50:00,
2013-05-08 23:56:00,54.5,53.6,30.03,SSW,211,0.0,0.0,97,0.00,,,0.00,meteobridge,2013-05-09 03:56:00,